Volver al catálogo

NAVSTAR 22

USA 66

ActivoNavegaciónMEO
NORAD 20959·PAYLOAD·🇺🇸 United States

Lanzado Nov 26, 1990 desde Cape Canaveral Space Force Station

Loading…

Próximos Pases (próximas 24 horas)

TLE

ActualizadoSource: Space-Track

Época: Sep 13, 2026, 09:24 UTC

1 20959U 90103A   26256.39234808 -.00000067  00000-0  00000+0 0  9999
2 20959  56.2820  48.6723 0023164  92.3006 267.9652  1.88155267257527

Sigue NAVSTAR 22 en tiempo real con AllMySat

Download on the App Store